Theta_e
294 296 293 293 294 291 287 286 285 284 288 288 289 289 288 288 290 289 287 286 285 286 290 289 289 289 290 292 294 296 295 293 293 294 297 299 300 300 300 299 300 301 301 303 302 302 302 302 302 302 299 298 296 295 295 296 297 298 298 299 299 301 302 301 301 301 301 301 301 302 302 302 303 303 304 304 305 305 306 307 307 307 306 307 306 306
296 294 294 291 286 288 286 284 285 288 288 290 289 289 289 287 289 288 287 285 289 288 290 287 287 290 292 295 296 296 293 292 294 296 298 300 300 299 299 299 300 300 303 304 303 302 302 303 303 302 303 301 298 296 295 296 298 298 298 299 300 301 301 301 301 302 302 303 303 303 303 303 304 304 303 304 305 305 306 306 306 306 306 306 306 305
295 293 289 284 285 286 286 285 286 288 289 288 290 290 288 289 288 287 283 285 286 287 289 289 288 291 294 295 294 292 292 294 295 297 298 298 300 300 299 300 300 301 302 303 302 303 302 303 303 303 303 302 301 300 298 298 297 297 298 299 300 301 301 301 301 302 302 303 304 304 305 304 304 306 306 306 307 306 305 306 305 305 305 305 305 306
291 293 286 285 285 287 286 286 286 288 289 290 290 289 289 286 287 289 286 284 286 287 287 288 286 291 294 293 293 291 291 293 294 293 294 296 297 299 298 298 298 299 302 302 301 301 301 302 302 303 302 301 303 303 303 301 299 297 298 299 300 301 301 302 302 302 303 304 304 304 303 303 304 304 304 304 304 304 304 304 305 305 305 305 305 306
292 287 284 285 286 287 287 286 287 288 289 288 290 289 287 286 287 286 288 288 287 285 285 287 291 294 293 293 296 293 290 291 295 294 295 296 295 296 297 297 298 298 300 301 301 301 301 301 301 301 301 302 303 303 303 302 301 299 299 299 300 300 301 301 302 302 303 302 301 302 302 302 302 301 302 302 302 303 303 303 304 304 305 305 305 305
287 284 285 286 286 285 286 287 287 289 288 289 287 289 287 287 287 287 287 287 289 289 286 286 287 290 295 293 292 294 293 295 294 295 299 300 298 297 296 299 300 300 299 299 300 300 300 300 301 302 302 302 303 302 302 301 301 300 300 299 299 299 300 300 302 302 302 301 301 300 300 299 300 301 302 301 302 304 303 302 305 305 304 304 304 305
287 282 285 286 287 287 286 287 287 286 289 287 286 285 286 287 286 286 286 288 287 286 287 285 286 285 295 292 295 290 290 292 295 295 297 298 298 297 298 300 300 299 300 301 300 300 300 301 301 301 301 302 301 301 301 301 301 301 301 299 299 300 300 300 300 302 301 301 301 301 301 302 303 302 305 305 306 306 306 306 304 305 305 304 304 304
286 285 285 285 286 288 288 287 285 285 288 287 284 284 286 287 286 286 286 287 287 287 288 286 288 285 286 293 290 287 288 292 293 295 297 298 298 297 298 299 300 300 299 300 300 300 300 300 300 299 300 300 300 300 301 302 302 302 301 300 299 299 299 300 300 300 301 301 302 302 302 302 303 303 304 304 302 303 303 302 303 303 303 304 304 304
285 284 285 285 285 286 288 285 282 283 286 286 283 285 286 286 286 286 288 287 287 284 286 286 289 284 286 292 288 288 291 294 294 295 297 298 299 298 300 299 301 300 300 299 301 301 300 300 300 300 300 300 300 300 300 300 301 302 302 301 299 298 299 300 300 300 300 301 301 302 302 301 302 303 303 303 302 301 302 301 302 302 302 302 303 303
285 285 287 288 287 288 286 284 285 283 289 285 285 286 286 286 286 287 287 287 286 283 284 284 285 284 287 294 293 289 290 292 295 296 296 298 299 300 300 301 300 299 299 299 298 300 300 300 300 300 299 300 300 300 300 300 301 302 303 303 302 301 300 298 299 300 300 300 300 300 301 301 302 302 302 302 301 302 302 301 302 302 302 302 302 302
286 289 288 287 287 286 286 284 284 285 285 287 287 289 287 286 287 285 286 286 285 282 285 281 282 283 283 292 293 294 295 295 295 295 294 296 298 298 299 301 303 299 300 300 300 300 300 300 299 299 300 300 301 301 300 301 301 301 302 303 302 302 302 300 298 299 300 300 300 300 301 301 301 302 301 301 301 301 301 301 301 301 302 301 301 302
286 287 287 285 286 286 289 286 285 284 287 288 287 287 287 285 283 285 284 285 282 283 282 282 281 283 282 288 294 294 292 289 294 295 296 296 297 298 299 299 298 297 298 299 299 301 301 300 300 300 300 300 300 301 301 301 301 301 301 302 302 301 301 301 300 298 299 299 300 300 300 300 300 300 300 300 300 301 300 300 300 301 300 300 301 301
287 288 285 285 286 286 287 288 287 288 288 287 286 287 284 283 284 281 283 280 282 283 282 283 282 280 281 289 293 293 293 293 292 294 296 296 296 299 300 301 299 298 297 298 301 301 302 301 301 301 300 301 301 300 300 300 300 300 300 301 301 299 300 300 301 301 299 298 299 299 299 299 300 299 300 300 300 301 300 301 300 300 301 301 301 301
287 281 285 286 286 287 286 287 285 284 287 286 286 286 283 280 278 275 280 277 278 282 280 282 283 280 287 290 294 293 296 296 294 294 294 293 294 296 299 300 297 300 299 299 300 301 303 303 302 301 301 300 300 300 300 299 299 299 299 300 299 298 298 299 299 300 301 300 300 300 299 299 299 299 299 300 300 300 300 301 300 300 300 301 301 301
283 285 285 286 285 284 285 285 285 287 287 287 287 285 286 285 280 276 280 280 282 283 281 281 280 284 285 290 289 292 293 292 290 289 290 290 292 293 294 293 294 295 297 299 299 301 302 302 302 302 301 301 300 300 299 299 298 299 299 299 299 298 298 298 298 299 299 299 299 300 300 300 300 300 300 300 301 300 300 301 300 300 300 300 301 300
283 284 283 282 282 282 284 286 283 286 287 286 286 287 284 284 287 282 282 280 279 281 282 280 282 289 290 293 293 294 292 290 291 291 290 290 291 291 292 293 295 297 298 300 299 301 301 301 302 302 302 301 300 299 299 298 298 299 298 297 297 297 296 297 297 297 298 298 298 298 299 299 299 299 300 301 300 300 300 300 300 300 300 300 300 300
281 283 282 284 282 284 284 283 286 284 284 286 285 284 285 284 285 276 273 272 272 278 279 285 284 288 292 293 293 292 290 293 290 289 289 290 292 293 294 296 297 298 300 301 301 301 301 302 300 301 302 301 299 299 299 298 298 298 297 297 297 296 296 296 296 296 296 297 297 297 297 298 298 299 299 300 299 298 299 299 299 299 299 299 299 299
284 285 281 284 283 282 283 283 283 284 284 285 283 285 283 284 285 283 281 278 280 278 281 281 282 285 285 285 295 293 292 294 293 291 291 292 293 292 295 298 298 300 301 301 299 299 299 301 301 302 301 301 300 299 298 297 296 297 297 297 296 296 296 295 295 295 295 296 296 296 296 296 296 296 297 297 297 298 298 298 298 298 298 299 298 297
288 284 283 281 282 284 282 284 285 285 285 285 284 286 284 283 282 283 281 274 275 274 278 282 280 280 284 287 291 291 292 294 294 294 293 294 294 295 297 298 298 299 300 300 299 301 300 300 300 301 301 300 300 298 298 297 296 295 295 295 295 294 294 293 294 294 295 295 295 295 295 295 295 295 295 296 296 297 297 297 297 297 296 297 297 297
288 283 284 279 283 284 283 285 284 284 285 284 284 285 283 283 285 282 283 283 282 278 273 279 280 283 289 288 291 292 293 294 293 293 294 295 297 297 297 298 298 299 299 300 301 301 301 301 301 301 301 300 299 298 297 296 295 295 295 294 294 293 293 293 293 294 294 294 294 294 294 294 294 294 294 294 295 296 295 295 295 295 295 295 295 296
286 285 281 283 282 282 283 284 284 287 284 283 284 284 283 284 285 285 282 282 282 279 278 278 278 284 291 292 291 293 294 295 294 294 296 296 297 296 296 297 298 298 301 301 301 301 300 300 300 300 301 301 299 297 296 295 295 295 294 294 294 294 293 293 293 293 293 294 293 293 293 293 293 293 293 293 293 294 293 293 293 294 294 294 294 295
286 284 282 284 283 282 285 282 282 281 283 286 286 285 286 283 282 279 280 279 279 280 277 276 278 286 292 288 292 293 294 295 293 292 294 295 294 295 295 296 296 297 299 301 301 299 298 298 299 299 299 299 298 296 295 295 294 293 294 294 293 293 293 293 293 292 292 293 293 293 293 292 292 292 292 293 293 293 292 293 293 293 293 294 293 293
287 285 283 281 284 286 283 280 280 280 278 281 283 285 285 287 286 284 278 280 278 279 277 280 275 281 293 289 292 293 293 290 288 288 290 292 294 294 294 294 295 296 297 299 299 297 296 296 297 298 299 298 297 297 296 294 294 295 294 293 293 293 292 292 292 291 292 292 292 292 291 292 292 292 292 292 292 292 292 292 292 292 293 293 292 292
287 284 282 283 286 281 279 281 279 279 280 281 280 280 282 284 285 285 285 284 283 280 278 279 276 282 292 289 289 288 287 287 287 287 290 291 292 293 294 294 293 294 295 296 296 295 295 295 295 295 296 298 298 297 295 295 294 293 293 292 292 292 291 291 291 291 291 291 291 291 291 291 291 291 292 292 291 291 291 291 291 291 292 292 292 291
284 286 283 281 281 284 283 281 282 278 281 283 285 284 283 284 282 280 279 280 281 281 283 281 276 283 292 287 290 288 289 290 292 292 289 291 294 297 296 295 294 293 293 294 295 296 295 295 294 295 297 298 298 297 296 295 294 293 292 292 292 291 291 291 291 291 291 291 291 291 291 290 291 291 291 291 291 290 290 291 291 291 291 291 290 290
286 286 284 280 278 276 276 277 282 284 283 284 283 281 281 282 281 281 280 282 278 282 281 279 281 287 292 290 293 293 292 292 293 294 291 291 293 295 297 298 296 294 293 294 294 295 295 296 297 297 297 298 298 297 296 295 294 293 292 291 291 291 290 290 290 290 290 291 291 290 290 290 290 290 290 290 290 290 290 290 290 290 289 290 289 289
285 284 285 287 285 283 285 286 284 283 283 281 283 279 282 282 284 284 284 282 279 282 279 283 284 286 288 291 292 293 294 293 293 294 294 295 295 294 293 293 294 295 295 294 295 297 297 295 295 296 297 297 297 297 296 295 293 292 291 290 290 290 290 290 290 290 290 290 290 290 289 289 289 289 289 289 289 289 289 289 289 289 288 288 288 288
284 283 284 284 286 288 289 287 286 282 284 286 284 283 282 282 282 282 281 280 286 282 278 284 285 283 285 289 290 291 291 292 292 293 294 294 294 296 297 296 293 293 293 293 293 293 295 297 298 297 297 296 296 296 295 294 293 292 291 290 290 289 290 290 289 289 289 290 289 289 289 289 288 288 289 289 288 288 288 288 287 287 287 287 287 286
285 282 285 284 283 286 288 287 287 283 283 285 285 285 283 282 282 280 282 286 285 282 281 286 287 285 286 288 290 291 292 292 293 294 295 294 294 294 293 293 294 294 295 294 294 294 295 296 298 298 297 296 295 294 293 292 292 291 291 291 290 290 289 289 289 289 289 289 289 288 288 288 288 288 288 288 288 287 287 286 286 285 285 285 284 284
284 283 284 284 283 285 286 286 285 283 283 282 283 283 285 283 282 283 284 285 286 285 287 288 287 287 290 290 291 292 293 293 294 294 293 292 292 295 295 295 295 295 294 295 296 296 295 295 296 296 296 296 294 294 293 292 291 291 290 290 289 289 289 289 289 289 288 288 288 287 287 287 287 287 287 287 287 286 285 285 284 284 283 283 283 282
285 283 284 281 280 282 284 284 282 282 281 280 283 284 284 283 283 283 284 285 285 285 286 286 286 286 291 293 292 292 292 293 294 293 293 294 294 294 295 295 295 295 295 295 296 296 297 296 295 295 294 294 294 294 293 292 291 291 290 290 289 289 288 289 288 288 288 287 287 287 287 287 287 287 286 286 286 285 284 284 283 282 282 281 281 282
285 283 281 282 280 281 281 281 283 278 277 277 278 281 281 280 278 281 281 284 284 283 285 284 282 283 289 291 291 291 292 292 292 293 294 294 295 294 293 294 294 296 296 296 295 296 296 296 295 294 293 294 294 294 293 292 291 290 290 289 289 288 288 288 288 287 287 286 286 286 286 286 286 286 285 285 285 284 283 283 282 281 281 281 281 283
284 283 282 282 280 280 283 277 276 276 278 278 279 280 282 282 284 285 285 285 286 287 284 282 284 289 291 291 289 290 291 291 292 293 294 294 295 294 293 293 295 296 296 296 296 295 296 296 295 294 294 294 293 293 293 292 290 290 289 289 288 287 287 287 286 286 285 285 285 285 286 286 286 285 285 284 283 283 282 282 281 280 280 280 282 284
282 283 283 284 278 280 278 274 275 278 275 278 289 290 287 283 283 282 283 285 286 287 286 289 290 293 292 291 290 290 291 292 293 296 296 294 294 294 293 293 294 294 295 295 296 295 295 296 295 294 293 293 294 293 293 291 291 290 289 288 287 286 286 286 285 285 284 284 284 285 285 285 285 284 283 283 282 282 281 280 280 280 280 281 283 284
281 282 282 281 278 279 278 277 277 273 276 286 283 284 286 288 288 286 287 288 289 289 288 288 289 290 291 292 292 292 292 293 292 292 293 294 293 293 293 294 295 296 296 296 296 295 294 294 294 292 291 292 292 291 290 290 289 288 287 286 286 286 286 285 285 284 284 283 283 283 284 284 284 283 282 282 281 280 280 279 279 279 281 282 283 283
284 283 282 277 279 278 274 277 271 274 284 286 286 284 284 284 284 283 284 287 287 288 289 287 288 290 290 291 292 292 289 291 293 295 296 296 294 294 295 295 296 296 296 296 295 295 294 294 293 292 291 291 290 289 289 288 288 287 286 286 286 285 285 284 284 283 283 283 282 283 283 283 283 282 281 281 280 279 279 278 279 279 281 282 282 282
288 286 284 280 283 276 278 278 277 283 283 285 286 285 285 285 284 284 283 287 291 290 289 288 289 290 290 291 291 291 291 291 291 293 297 297 298 296 295 296 296 296 295 294 293 293 294 294 293 292 290 289 289 289 288 287 287 286 285 285 284 284 284 284 283 283 282 282 282 282 282 282 282 281 280 280 279 278 278 278 279 280 281 281 280 280
287 284 285 281 280 282 278 275 276 276 274 281 288 292 292 291 291 291 286 284 291 292 291 290 290 290 291 291 291 291 291 289 289 293 293 291 292 295 293 293 293 292 291 290 291 291 291 291 291 290 289 288 288 288 287 287 286 285 285 284 284 283 283 283 283 283 282 282 281 281 281 281 281 280 279 279 279 278 278 279 280 280 280 279 279 278
283 284 283 282 280 278 276 275 275 274 278 287 289 292 290 287 290 288 286 282 292 291 291 291 291 291 291 291 290 291 290 287 290 294 298 294 293 292 292 293 292 290 289 290 291 291 289 289 289 288 288 287 286 286 286 286 286 285 284 284 283 283 283 283 283 282 281 281 280 280 280 280 280 279 279 278 278 278 278 278 278 278 279 278 278 277
281 281 281 278 277 278 277 275 274 279 279 285 289 288 286 285 287 287 278 281 293 291 289 288 289 290 291 291 291 290 289 288 291 295 295 292 291 290 291 291 291 291 290 288 288 289 288 287 287 286 287 287 286 285 285 286 286 285 284 283 283 283 283 283 282 282 280 279 279 279 279 279 279 279 278 278 277 277 277 277 277 277 277 277 277 277
278 278 280 277 279 279 279 277 279 281 287 288 288 288 284 286 287 281 276 287 293 289 287 290 290 291 291 290 291 291 293 295 296 297 294 293 292 293 290 288 288 287 288 287 286 285 286 287 288 288 287 286 285 285 285 286 285 284 283 282 282 283 282 281 280 279 279 278 278 278 278 278 278 278 277 277 277 277 277 277 277 277 277 277 277 276
277 279 278 279 277 277 278 276 277 281 289 292 287 288 290 286 280 280 290 293 291 290 288 290 293 292 291 290 291 292 295 296 293 292 292 293 293 292 291 288 287 286 285 285 284 285 286 287 286 285 284 284 284 284 285 285 284 283 282 282 282 281 280 279 279 278 278 278 277 277 277 277 277 277 277 277 277 277 276 277 277 277 277 277 276 275
281 277 276 277 279 279 278 276 275 272 284 291 290 284 286 283 286 293 293 291 290 291 291 292 291 292 290 292 292 292 292 292 292 292 292 292 292 292 292 290 289 288 286 285 284 284 286 285 285 284 283 283 284 284 285 285 283 282 282 282 281 280 279 278 278 277 277 277 276 276 276 276 276 276 276 276 277 276 276 276 276 276 276 276 275 274
287 280 280 280 283 277 276 273 275 283 288 290 291 285 288 290 294 294 291 290 290 290 291 292 291 291 290 291 293 292 291 290 290 291 292 292 293 293 291 288 286 286 285 285 285 284 285 284 283 283 282 282 282 283 284 284 282 281 282 281 279 278 278 277 277 276 276 275 275 275 275 275 275 276 276 276 276 276 275 275 275 275 276 275 274 273
288 284 286 282 286 283 281 284 288 290 291 293 292 293 295 295 293 289 288 289 289 291 289 289 291 292 291 292 291 291 290 291 291 291 290 291 291 291 291 290 289 287 286 285 284 284 284 284 282 281 281 281 281 281 282 283 282 280 280 279 277 277 277 276 276 275 275 274 274 274 274 274 275 275 275 275 275 275 274 274 275 274 274 274 274 273
291 289 288 287 286 290 290 291 293 292 291 289 291 293 292 292 292 290 289 290 292 291 290 292 291 291 292 291 290 291 292 292 291 291 291 291 290 291 290 289 287 286 285 284 283 283 283 282 281 281 280 279 280 280 281 281 281 279 279 277 277 277 276 275 274 274 273 273 273 273 273 272 272 273 274 274 275 275 275 274 274 273 273 273 273 273
289 290 286 283 286 285 281 290 289 290 292 292 292 294 295 295 293 292 289 289 290 290 290 290 291 292 292 291 290 291 291 292 291 290 290 291 290 290 289 288 288 286 284 283 283 282 281 281 280 280 279 278 278 279 279 279 280 280 278 277 276 276 275 274 273 272 272 272 272 272 273 273 273 272 273 273 274 274 273 273 273 272 272 272 272 272
284 289 285 285 284 283 284 289 291 293 293 293 294 293 292 292 292 291 291 290 290 290 289 290 290 289 290 290 291 290 291 292 290 290 290 290 290 290 289 289 288 286 285 284 283 282 281 280 280 279 278 278 278 277 277 277 277 277 276 275 275 274 274 272 272 272 272 272 272 273 273 273 270 272 273 273 274 273 273 273 273 273 272 272 273 272
288 288 281 285 283 286 289 290 290 291 292 292 291 291 291 291 291 291 291 291 290 291 290 289 289 290 290 291 291 290 290 291 291 290 289 290 290 289 289 289 288 287 285 283 282 281 281 281 280 278 278 277 277 276 275 275 275 275 274 274 273 273 273 272 271 271 271 272 272 272 272 272 273 273 273 272 272 272 273 272 272 271 270 271 272 272
287 283 287 286 281 281 282 286 290 285 285 291 293 295 294 294 292 291 291 291 291 290 289 290 291 290 289 289 288 289 289 290 290 289 288 289 289 289 288 288 287 286 285 284 282 281 281 280 279 278 277 276 276 275 274 273 273 273 273 273 273 273 272 271 271 271 271 272 272 272 272 272 272 272 272 272 272 272 272 272 273 273 272 271 273 273
285 286 287 283 282 282 288 290 292 292 291 292 294 296 296 295 291 290 290 290 291 290 290 290 291 293 295 295 293 290 291 291 291 289 288 289 289 289 288 287 286 285 284 282 281 280 280 279 278 276 275 275 275 274 273 273 272 272 272 273 273 273 271 271 271 271 271 271 271 271 271 271 271 272 272 272 272 272 271 271 272 273 273 273 272 272
Wind_Speed
2 4 3 4 1 2 1 1 2 2 1 5 4 2 0 2 5 0 0 2 3 5 7 5 8 13 17 18 16 13 4 7 10 10 8 7 5 3 3 2 3 3 3 4 5 4 4 5 5 4 3 1 1 2 3 4 6 7 7 6 7 6 6 6 6 6 7 7 6 6 7 8 7 8 8 7 7 7 7 7 7 7 6 6 6 6
2 3 3 2 2 2 4 3 0 2 4 1 4 1 1 2 4 2 1 2 2 6 6 2 9 16 17 17 12 6 4 10 11 9 8 7 4 3 3 3 3 3 2 2 2 3 3 4 5 4 3 3 1 1 2 4 5 5 6 7 6 5 7 7 7 7 7 7 7 5 6 6 5 6 7 7 7 7 6 6 6 6 6 6 7 7
1 4 2 3 3 5 3 1 1 1 2 1 1 1 2 1 5 2 1 1 0 3 7 5 13 17 17 13 9 5 7 5 2 3 3 3 4 3 2 3 3 3 3 2 2 3 4 5 4 3 3 3 2 1 1 2 3 4 5 6 6 6 6 7 7 6 7 6 6 5 2 4 3 4 4 4 4 5 5 6 7 7 7 8 8 9
5 1 4 3 1 2 2 3 2 3 1 0 2 2 4 2 3 3 2 1 2 2 6 10 12 14 11 4 2 1 3 4 5 5 7 6 6 4 2 3 4 4 3 3 4 4 4 4 3 4 3 3 2 1 1 0 2 3 4 4 5 5 6 6 7 7 6 5 4 3 0 0 1 1 2 3 3 4 4 5 6 7 7 9 8 8
2 3 2 2 1 2 2 2 2 2 2 0 1 1 1 1 2 1 3 5 3 1 2 11 9 7 1 2 1 3 2 4 2 4 7 6 7 6 5 5 5 4 3 3 3 3 4 4 4 4 3 3 2 2 3 3 2 1 3 3 4 4 5 6 6 8 6 4 4 4 2 1 2 1 3 3 4 5 5 5 6 7 7 7 7 7
1 1 2 3 1 1 1 2 4 1 3 1 3 1 1 3 2 2 4 8 3 2 2 8 8 6 0 4 6 2 4 4 1 3 5 4 3 3 5 4 3 4 4 4 4 4 4 4 4 2 3 4 3 4 4 3 3 3 2 2 2 3 3 4 5 6 6 6 6 6 5 6 5 5 6 7 7 6 6 7 4 5 6 6 6 6
3 0 2 2 3 3 1 2 1 2 1 2 1 1 2 3 2 0 5 4 5 6 2 1 3 8 2 7 3 2 5 7 5 5 7 4 4 4 5 3 3 2 2 3 4 4 4 2 3 2 3 4 4 4 4 3 3 2 2 1 2 2 2 2 3 5 5 6 6 8 7 6 6 6 5 4 2 2 2 2 3 3 4 6 6 6
4 3 2 0 3 3 2 3 2 2 2 3 2 2 3 2 0 1 1 1 4 2 2 1 1 5 10 6 2 2 4 6 6 8 8 7 6 7 5 4 3 3 3 2 2 2 2 2 2 3 3 3 4 4 4 3 3 3 2 2 1 1 2 2 3 4 5 5 5 6 7 6 6 5 3 1 1 1 0 1 2 2 3 4 5 5
0 5 5 5 2 3 4 1 1 2 2 2 3 2 1 1 2 2 1 2 1 4 4 4 1 3 6 4 2 1 5 3 6 8 10 9 8 7 7 5 4 4 2 2 2 2 2 2 2 2 2 3 3 3 3 3 3 3 2 1 1 0 0 1 3 4 6 5 4 4 5 5 5 4 4 2 1 1 2 2 2 3 3 4 4 5
2 1 3 1 4 4 4 1 1 1 1 2 4 3 4 3 3 0 1 1 1 0 4 4 3 3 9 1 2 2 2 6 4 4 7 9 9 8 6 5 3 2 2 2 3 3 3 2 2 2 3 1 2 2 2 2 2 2 2 3 3 3 1 1 1 2 4 5 4 5 5 5 5 3 3 3 3 3 3 4 4 4 4 4 4 5
2 1 2 2 2 3 5 4 2 2 3 9 5 3 2 1 1 1 1 0 1 3 2 3 2 3 6 2 2 2 1 1 2 2 2 4 5 6 5 5 3 3 2 2 2 3 3 2 3 2 1 1 1 1 2 2 3 3 3 2 4 4 2 2 2 2 2 3 4 4 5 5 6 5 3 4 4 3 3 3 3 3 3 3 3 3
2 1 2 2 2 2 2 6 2 1 3 3 2 2 2 3 2 2 1 1 2 3 4 2 2 3 4 3 1 3 3 4 4 5 4 4 9 8 7 6 4 2 2 1 2 2 2 2 3 3 2 1 1 1 2 2 2 3 2 2 4 4 4 3 2 2 2 2 3 3 3 4 5 4 3 4 4 3 4 3 3 2 2 3 3 3
3 4 2 1 1 2 2 4 3 1 2 2 2 2 2 2 2 2 2 3 3 3 3 1 3 3 11 13 6 7 6 7 7 6 5 4 5 6 5 4 1 1 1 3 3 3 3 4 4 4 2 1 1 1 1 2 2 2 2 2 3 4 4 3 3 2 2 1 1 2 3 4 3 4 4 4 4 3 3 3 3 2 3 2 2 2
1 3 0 3 1 2 3 5 3 3 4 3 4 3 1 2 0 3 1 1 4 1 1 1 1 5 8 9 11 15 13 6 4 5 6 7 7 5 3 2 3 3 3 4 3 3 4 3 3 3 2 2 1 0 1 1 1 1 2 2 3 3 3 3 3 3 3 2 1 0 1 1 2 2 2 3 3 2 2 2 2 2 2 2 2 2
5 4 5 6 3 3 4 3 4 4 6 5 3 2 1 1 2 3 1 6 4 1 2 1 1 3 3 1 1 6 5 5 4 4 4 6 7 6 5 5 6 7 6 4 4 5 5 5 5 4 3 2 1 1 1 1 1 1 2 2 2 3 3 3 3 2 3 2 2 1 1 1 1 2 2 2 2 2 2 2 2 2 2 2 2 2
4 5 3 3 2 2 2 2 3 2 2 1 1 2 1 3 1 5 1 1 0 2 2 3 5 2 6 6 9 6 6 10 8 9 6 9 6 5 6 6 6 6 6 3 4 4 5 5 4 3 3 3 2 2 2 2 1 2 2 2 3 3 2 2 3 2 2 2 2 2 1 1 0 1 1 1 1 1 1 2 2 2 2 1 1 1
1 4 4 0 2 0 3 3 1 2 2 3 3 3 0 4 2 6 2 3 0 1 6 1 6 7 6 10 6 3 2 7 2 4 4 6 4 3 6 6 7 7 5 4 4 4 5 4 4 4 4 3 3 3 3 2 1 1 3 3 3 3 2 2 2 2 2 2 2 2 2 2 1 0 1 0 0 1 1 1 1 1 1 1 1 1
2 2 2 1 4 3 2 2 3 3 3 1 3 2 1 1 2 1 3 1 1 4 3 2 5 7 5 6 2 5 5 4 2 1 2 3 2 5 8 7 7 7 7 4 4 4 4 3 4 4 3 4 4 4 3 3 1 1 0 2 3 2 2 2 2 2 2 1 2 2 2 2 2 1 1 1 0 0 1 1 1 1 1 0 1 1
1 4 2 1 2 1 1 2 3 2 2 3 3 4 3 2 3 1 0 3 3 3 3 3 2 5 6 9 1 7 4 4 1 2 3 3 4 8 8 8 7 7 6 6 6 5 5 6 6 5 5 5 4 4 3 2 2 2 1 1 1 2 2 1 1 1 1 2 1 1 2 2 2 1 1 1 0 0 1 1 1 1 1 1 1 1
1 3 1 2 2 1 1 1 4 4 2 2 1 2 2 2 3 2 2 2 0 4 1 2 2 7 6 6 5 5 5 6 5 4 4 5 5 5 6 6 7 8 8 7 6 4 5 5 7 7 6 7 7 6 4 4 3 4 3 3 3 3 2 2 1 1 2 2 2 2 2 2 2 2 2 2 1 1 2 2 1 1 1 2 1 1
0 2 4 3 4 2 2 6 5 5 6 4 3 1 1 2 2 3 1 2 2 2 2 3 4 6 8 5 6 9 7 7 4 5 5 4 4 5 6 6 7 8 8 7 6 5 4 5 5 5 5 5 5 4 4 4 5 3 2 3 3 3 3 2 2 2 2 2 2 2 2 2 2 2 2 2 2 2 2 2 1 1 2 1 2 2
1 1 5 1 1 4 2 4 2 3 3 2 6 7 7 6 3 2 6 5 1 3 4 3 9 2 10 6 6 6 7 6 1 4 6 7 6 6 5 6 7 7 8 7 5 3 3 3 4 4 3 3 5 6 6 5 4 4 4 3 3 3 2 2 2 2 2 2 2 2 2 3 2 2 2 2 2 3 2 2 2 1 1 3 3 2
2 1 1 4 4 4 2 3 1 1 0 2 2 3 2 4 1 4 9 3 1 3 4 2 4 6 9 6 6 8 3 1 1 1 6 7 7 6 6 6 6 8 9 7 5 4 4 4 4 4 6 8 8 7 7 6 5 5 4 3 3 3 3 2 3 2 2 2 2 3 2 2 2 2 3 3 3 3 2 2 2 1 2 3 3 3
4 2 3 5 2 1 1 1 2 1 2 1 3 1 1 6 5 4 3 1 2 2 2 2 5 6 9 4 5 3 3 3 4 6 8 9 7 6 7 6 6 7 8 7 6 6 5 4 3 4 6 7 7 7 8 6 6 4 4 3 3 4 4 4 3 3 3 3 3 3 3 3 3 3 3 3 3 3 3 2 2 2 3 3 3 4
2 1 2 4 5 3 2 2 1 0 0 3 3 5 8 2 3 1 2 0 3 5 4 2 12 3 7 0 1 3 3 4 7 6 8 8 8 6 6 4 4 6 6 7 8 7 5 6 7 7 8 8 8 7 7 7 6 6 5 4 4 3 3 3 3 3 3 3 4 3 3 3 3 3 3 3 3 3 3 3 3 3 3 4 4 4
1 2 3 4 7 7 5 4 5 1 2 3 3 1 5 9 4 2 6 4 8 3 9 3 9 14 10 4 7 9 6 9 9 6 5 8 9 7 5 5 5 4 6 6 7 6 8 7 5 6 7 7 8 8 8 7 6 6 5 4 3 4 4 4 3 4 4 3 4 4 4 3 3 3 3 3 4 4 3 3 4 4 4 4 5 5
1 1 3 6 7 11 8 6 1 4 2 2 3 6 8 9 9 7 1 2 9 4 5 8 12 17 20 15 11 12 8 9 11 7 7 8 8 7 7 7 6 5 6 7 6 6 5 6 8 8 7 7 8 8 7 7 7 6 6 5 4 4 4 4 4 4 4 3 4 4 3 3 3 3 3 3 3 3 4 4 4 4 5 4 5 5
0 4 5 8 12 14 12 13 9 7 13 12 7 7 8 10 12 12 10 11 6 1 13 8 17 14 18 20 18 19 21 12 9 10 8 7 9 9 7 6 6 6 7 6 6 8 10 10 8 8 8 8 8 7 6 6 7 7 7 6 5 5 4 4 5 5 4 4 4 3 4 3 3 3 3 3 4 4 4 5 5 5 4 5 5 6
1 5 2 4 11 14 12 13 10 5 9 13 11 10 9 12 12 13 14 16 7 9 14 11 16 18 18 18 19 20 20 16 9 12 8 8 7 5 4 9 10 9 9 8 9 9 9 9 9 8 7 7 7 9 9 7 7 6 5 5 5 5 5 5 5 5 5 4 4 4 3 4 3 3 4 4 5 5 5 5 5 5 5 5 5 4
1 6 4 6 9 9 10 10 7 9 9 9 12 12 11 11 16 18 16 16 17 17 19 18 19 22 10 11 16 19 15 14 10 5 4 7 11 8 9 11 12 11 11 11 11 10 10 10 9 8 7 7 9 10 9 9 8 8 7 7 6 5 5 5 5 6 5 4 4 4 4 4 4 4 5 5 5 5 5 5 5 5 6 6 6 6
3 4 7 0 2 6 7 5 4 8 8 9 14 14 11 8 10 15 14 17 17 20 17 17 18 20 10 10 16 21 15 15 13 17 17 11 10 11 11 13 12 12 11 11 11 11 10 9 9 8 8 9 10 12 11 9 8 7 7 6 6 6 5 4 5 5 4 4 3 4 4 4 4 5 5 5 5 5 6 6 5 6 7 7 7 7
4 3 3 0 6 11 3 6 5 1 5 10 14 13 6 6 10 9 12 14 13 17 11 15 16 16 14 21 18 18 17 17 18 18 15 11 10 7 9 11 12 11 10 11 12 10 9 9 9 9 10 10 10 11 10 9 8 8 7 6 6 5 5 4 5 5 4 4 4 4 4 4 5 5 5 5 5 5 6 6 6 7 7 7 8 7
6 2 2 2 8 11 4 2 5 6 6 12 17 14 17 18 17 12 14 13 18 19 16 14 16 17 15 10 9 17 15 17 16 11 11 11 9 7 9 11 13 13 13 13 10 10 11 10 8 8 8 7 9 10 9 8 9 8 7 7 6 6 6 6 5 5 5 4 4 4 4 5 5 6 5 5 6 6 6 7 7 7 7 7 7 7
2 4 6 2 9 10 2 3 0 3 13 14 1 6 16 16 19 18 17 17 19 14 15 17 17 4 7 5 11 15 17 17 7 7 4 8 7 4 8 11 14 15 15 14 11 11 11 8 5 5 7 8 8 9 8 8 8 8 7 8 7 7 6 7 6 6 5 5 4 5 5 5 6 6 6 6 6 7 7 7 7 7 7 7 7 8
6 4 5 2 3 10 1 2 6 13 18 2 2 1 5 11 10 13 13 13 13 15 18 18 19 15 14 10 13 19 19 12 3 8 12 8 8 8 11 14 14 13 13 12 9 9 9 9 5 5 6 8 9 9 9 8 7 8 8 8 8 6 7 6 7 6 6 6 5 5 5 6 6 7 7 7 7 7 7 8 7 7 6 6 7 8
5 6 2 2 3 1 1 5 10 13 7 3 4 1 1 1 3 4 13 18 18 17 15 15 19 21 22 20 20 16 6 7 9 11 14 4 9 12 12 11 11 9 11 9 8 8 8 7 8 7 7 7 9 9 8 9 9 9 8 7 7 7 7 7 7 6 6 6 5 5 5 6 7 7 7 7 7 8 8 7 7 7 6 7 7 6
16 6 4 8 5 12 10 10 14 11 19 18 16 6 4 3 4 7 9 11 10 11 14 16 19 19 18 17 22 7 3 6 10 15 6 7 5 7 8 10 10 11 9 10 7 9 6 3 5 7 8 8 9 10 9 9 9 9 9 8 7 7 7 7 7 7 6 6 6 5 6 6 7 8 7 7 8 8 8 8 8 7 6 7 7 7
9 12 6 8 5 9 11 12 7 7 13 13 6 10 14 14 7 2 4 17 9 12 11 13 15 15 14 15 9 1 0 5 6 8 4 2 1 1 4 6 8 8 9 10 7 3 2 2 5 7 9 11 9 8 8 9 9 9 9 8 8 8 8 7 7 6 6 6 5 5 5 6 7 7 7 7 8 8 7 7 6 6 5 8 8 7
2 2 1 8 5 2 6 11 11 12 11 2 3 5 2 1 4 5 1 15 5 10 9 9 11 14 12 5 3 3 1 2 6 7 2 1 1 2 5 6 6 7 6 6 5 3 3 4 7 9 9 10 11 8 8 10 10 9 8 8 8 8 8 7 7 6 6 5 5 5 5 5 6 7 7 8 7 7 8 7 7 6 6 7 7 7
6 6 5 5 10 10 10 9 10 5 9 4 6 3 2 2 3 3 8 4 2 1 4 7 11 10 7 0 5 3 4 3 6 6 3 2 3 5 4 5 6 5 4 2 2 0 4 6 9 9 9 9 10 10 10 10 9 8 8 8 7 8 7 7 6 5 5 5 5 4 5 4 6 6 7 8 7 7 7 6 7 7 7 7 6 7
5 5 9 14 12 14 15 10 8 10 10 9 10 2 1 2 0 7 16 6 1 2 3 6 5 5 5 3 5 3 6 8 9 9 8 7 8 5 3 3 4 4 4 2 1 3 5 5 4 6 7 7 9 9 9 8 8 7 6 7 7 7 6 5 5 5 5 5 5 5 5 5 5 7 6 7 8 7 7 6 7 7 7 7 6 7
2 3 2 5 9 11 12 12 12 11 5 3 3 4 4 2 9 12 5 1 1 3 1 4 4 2 4 6 5 6 7 8 7 8 10 10 8 8 3 3 1 0 2 3 2 2 5 4 5 6 7 6 7 7 7 8 8 7 7 7 7 6 6 6 6 6 6 6 6 6 5 6 5 6 6 6 8 8 7 6 7 7 7 6 7 7
8 6 7 9 6 4 3 7 5 12 2 11 8 1 3 8 13 11 9 7 3 2 1 2 2 1 2 4 6 8 9 11 11 10 10 10 8 8 5 2 2 2 1 3 2 1 3 5 6 6 6 5 6 6 6 8 8 7 7 7 7 6 6 6 6 6 6 6 6 6 6 6 7 6 5 6 6 8 8 6 6 6 6 7 7 7
8 8 6 7 7 6 8 10 8 11 9 7 13 9 8 13 15 13 3 9 1 2 3 3 1 2 3 4 9 9 7 9 12 10 10 11 9 6 4 2 1 1 2 2 2 3 3 5 5 6 5 5 4 4 5 7 7 7 7 7 6 6 7 7 7 7 7 6 6 6 6 6 6 6 6 6 6 7 8 6 6 5 5 5 6 5
13 15 10 11 9 10 7 9 10 13 8 7 8 10 7 7 7 3 3 6 8 6 2 4 4 5 5 5 8 9 10 9 9 9 8 11 11 11 11 7 4 4 5 5 6 5 4 5 8 6 6 4 5 4 4 4 7 8 8 6 7 7 8 8 7 7 7 6 6 6 6 6 6 6 5 5 6 7 7 6 5 6 4 4 4 4
1 6 4 9 9 7 11 10 5 9 10 9 9 9 12 13 11 6 4 8 4 2 2 2 4 7 7 4 5 9 8 10 10 11 9 8 9 11 10 7 2 3 4 4 5 7 6 5 6 7 8 6 4 4 3 3 5 8 7 7 7 7 7 7 8 7 7 6 6 6 6 7 6 6 5 5 4 5 5 5 5 5 4 4 4 4
6 8 4 5 3 8 10 11 17 18 17 14 12 13 10 7 9 8 8 7 8 7 7 5 5 5 6 4 6 7 11 12 11 13 10 8 9 9 8 9 7 5 6 8 7 8 7 7 6 6 7 8 5 4 4 4 4 5 7 7 7 7 7 7 7 8 7 7 7 6 6 7 6 6 5 5 5 5 4 4 4 5 4 3 4 4
9 3 5 10 11 10 13 11 12 15 13 12 9 9 11 13 11 6 7 6 5 4 4 5 1 5 3 4 6 6 9 9 9 11 11 11 11 9 7 7 8 5 5 5 6 7 6 6 6 7 7 6 6 4 5 5 5 6 7 7 7 7 8 8 7 8 7 7 7 6 5 6 8 8 6 5 5 5 5 4 3 4 3 3 3 4
7 3 4 1 5 8 12 15 20 23 15 10 7 5 7 9 11 13 9 7 3 5 7 6 4 4 4 7 5 5 7 8 8 7 8 10 11 9 7 7 6 6 5 7 7 8 7 6 6 6 6 6 6 5 5 5 5 6 7 7 7 7 8 8 8 8 8 7 6 6 5 6 5 5 6 6 6 6 4 4 4 5 5 4 3 2
4 14 9 8 12 11 10 12 11 12 11 9 7 10 12 13 11 11 11 10 10 9 5 5 7 5 7 7 5 5 8 10 8 7 8 7 9 9 8 7 5 4 4 5 5 6 5 5 7 7 7 6 7 5 6 6 6 6 6 7 7 7 9 9 8 8 7 6 6 6 6 6 5 5 6 6 6 7 7 9 7 4 5 6 7 9
15 14 9 12 12 13 11 13 11 11 14 12 13 11 9 7 7 9 10 10 9 6 7 6 5 10 14 15 8 8 12 13 11 6 9 8 7 6 5 5 5 3 4 6 7 6 6 6 7 7 7 7 7 7 6 6 6 6 6 7 7 8 9 8 8 6 6 6 5 5 6 6 5 5 5 5 6 6 7 7 8 10 10 10 10 11
Wind_Direction
318 218 216 224 275 75 41 282 321 348 46 96 97 132 337 284 277 168 60 31 303 278 246 268 267 275 279 274 268 275 194 238 254 252 238 236 236 255 283 297 313 308 335 338 319 334 344 351 359 0 358 6 157 230 221 217 215 215 212 204 213 205 197 191 190 192 191 190 191 205 211 214 206 209 208 214 214 218 221 213 208 202 206 203 199 201
256 270 234 67 61 100 106 109 10 99 4 138 126 241 195 188 301 87 80 54 342 13 294 148 286 274 266 274 284 271 202 248 239 232 233 232 227 243 277 311 324 337 284 302 16 17 16 10 4 4 20 18 102 124 230 220 218 212 207 211 208 193 192 204 205 195 197 199 193 191 199 203 202 193 199 212 209 214 215 210 204 204 204 200 202 205
151 237 87 76 84 103 101 19 3 331 131 53 270 118 292 203 276 243 54 100 243 315 280 350 315 294 289 298 304 269 233 250 287 272 258 282 270 260 263 283 313 329 353 2 42 18 14 3 8 10 23 31 14 339 259 262 244 221 214 213 206 196 192 199 203 200 203 202 204 211 176 193 197 211 221 220 212 202 209 206 205 207 207 203 208 208
269 129 108 103 205 148 95 65 61 101 93 178 158 231 295 24 334 307 114 1 201 271 303 324 303 285 297 288 273 94 226 268 279 266 261 246 263 264 281 322 303 310 324 349 355 355 359 356 3 8 13 5 336 2 58 337 247 235 227 216 205 200 200 197 195 202 208 200 192 200 182 141 293 136 171 229 233 222 210 213 207 211 209 208 212 209
256 58 58 148 38 312 143 65 165 200 222 41 286 190 235 191 154 244 347 310 200 112 264 288 264 267 37 301 217 122 205 260 241 265 242 231 237 268 297 276 240 260 299 307 323 340 353 351 1 357 348 335 349 9 3 343 317 270 257 234 224 217 207 206 192 193 191 168 184 193 187 209 204 223 220 208 220 207 209 220 206 214 205 208 212 212
133 98 151 149 131 64 142 187 213 228 266 146 208 306 74 105 197 287 307 323 285 199 95 7 330 296 286 255 256 339 331 264 152 300 257 237 209 205 244 245 191 231 241 260 282 312 318 314 327 351 7 4 357 9 359 338 317 308 289 262 224 235 230 213 199 192 186 189 191 183 195 202 209 220 205 212 218 197 200 211 208 200 200 207 212 215
39 142 262 156 170 116 320 273 54 184 246 272 130 121 109 123 90 34 334 325 312 315 65 282 294 289 248 275 268 11 311 283 268 259 262 256 232 222 234 222 202 201 199 211 243 259 270 296 313 357 12 0 359 5 343 333 337 332 305 291 259 237 213 205 205 190 195 197 202 203 210 217 216 220 220 214 204 220 190 185 195 201 192 204 209 215
131 128 141 166 149 174 183 236 144 268 257 252 55 142 133 114 31 33 301 152 279 326 266 82 286 276 299 291 56 333 290 277 267 247 241 235 228 225 226 220 205 197 213 229 248 247 254 265 292 335 349 2 356 339 332 346 356 354 351 323 280 230 220 168 184 189 210 212 210 212 217 227 235 239 254 152 186 97 43 205 192 200 195 191 209 216
182 150 193 156 183 182 219 37 49 294 276 45 166 314 108 43 69 151 254 289 345 332 272 140 343 253 247 241 126 277 300 256 256 235 227 225 221 218 226 224 206 208 201 225 249 271 291 307 318 322 341 359 352 357 353 356 353 353 358 359 70 74 207 145 180 187 195 219 225 222 230 237 242 251 257 270 209 232 171 228 203 213 210 199 201 217
307 357 228 245 175 213 95 108 31 259 190 141 134 111 94 92 74 137 275 264 207 233 266 136 342 260 273 266 296 101 238 273 260 247 232 217 215 211 217 222 208 195 216 232 252 274 283 282 290 311 291 316 27 360 335 349 353 15 21 61 70 60 60 66 157 196 197 206 214 222 228 241 251 245 250 253 256 242 225 238 234 230 231 226 215 212
347 267 291 312 289 33 124 65 7 55 65 123 168 139 111 76 127 133 64 266 204 232 218 65 323 288 299 254 243 193 245 213 186 270 242 241 238 234 235 233 215 182 176 177 227 256 259 266 273 276 267 50 65 20 7 26 25 23 36 49 65 51 59 70 115 172 184 197 216 226 229 233 243 248 249 259 247 236 225 239 230 228 231 219 232 219
145 112 215 36 12 112 132 96 62 321 83 176 171 213 235 183 160 163 159 207 232 249 99 333 24 303 239 289 199 256 312 251 251 283 281 236 227 218 214 223 221 222 226 275 274 237 196 205 199 212 190 117 58 50 36 29 27 37 38 30 79 57 43 49 59 138 170 186 205 231 241 242 248 255 252 252 261 262 263 253 254 237 238 238 230 229
214 164 72 53 276 306 215 124 107 144 238 213 189 209 282 295 339 249 155 228 189 266 100 21 270 263 226 242 306 286 248 243 224 249 284 306 270 226 218 222 215 200 227 241 245 247 229 210 196 193 178 179 105 44 2 21 34 45 45 34 74 59 40 50 51 68 95 144 196 217 225 236 240 243 246 250 255 261 262 264 260 257 254 237 240 228
240 71 137 112 214 192 266 222 161 218 177 194 195 182 210 258 182 259 247 353 303 140 334 242 21 263 289 280 241 249 265 290 286 242 252 262 267 272 244 256 269 249 228 232 234 242 237 223 217 205 197 196 170 272 309 24 60 78 74 51 78 71 46 49 60 64 88 84 75 140 232 242 246 245 232 246 251 255 264 268 264 260 266 269 266 278
283 264 172 177 170 50 244 318 350 337 158 197 22 269 273 200 235 271 203 264 283 328 111 237 292 246 299 187 323 233 293 315 246 246 250 248 250 255 272 278 269 267 253 216 226 232 224 216 215 204 194 177 162 237 267 247 142 136 110 94 94 88 56 51 53 60 66 74 77 90 149 197 214 215 222 224 227 237 242 240 243 250 250 253 261 260
240 265 50 355 11 336 226 13 314 325 103 109 276 19 226 224 59 250 22 297 320 322 257 180 233 269 235 353 276 250 272 265 249 249 230 247 232 236 262 248 247 248 250 218 234 240 233 227 215 213 202 180 159 204 248 244 198 148 121 113 90 83 67 52 52 58 51 61 72 61 88 81 155 234 237 224 195 222 229 243 249 250 249 260 278 267
109 233 54 183 167 136 22 331 247 306 244 135 171 203 12 2 91 99 130 98 320 254 247 141 273 255 264 265 269 346 278 274 180 245 240 258 242 224 248 245 238 239 237 229 229 234 234 205 215 220 196 167 159 195 216 215 246 170 149 141 122 109 101 74 55 61 57 64 86 77 61 60 87 136 271 267 125 233 214 245 239 245 274 281 251 263
273 326 81 291 163 78 321 281 299 305 302 104 212 104 125 274 335 208 261 133 252 238 262 125 251 289 8 304 62 309 321 301 335 30 286 271 225 233 237 231 232 233 233 232 247 248 248 242 221 206 192 170 171 183 192 196 214 269 185 125 123 119 99 70 52 59 55 66 82 81 74 65 46 35 24 350 326 275 210 184 193 201 205 155 39 2
40 280 119 358 8 70 153 239 228 161 277 328 352 338 272 181 200 111 279 233 204 230 257 220 311 263 233 261 309 277 258 282 290 15 340 266 220 236 242 238 237 243 242 236 236 227 219 215 218 213 196 170 159 169 185 169 192 219 207 140 115 108 92 70 53 53 80 51 69 52 61 51 63 59 56 59 46 105 152 107 74 87 60 100 89 156
278 277 169 194 165 54 276 205 237 147 169 178 255 250 37 325 298 168 215 338 312 273 60 261 118 260 195 223 205 240 243 275 268 284 253 245 227 230 241 243 236 229 227 225 231 223 223 217 208 204 192 174 172 176 181 183 193 214 192 168 138 127 133 140 117 116 104 75 69 80 87 70 57 54 50 39 37 64 59 56 59 80 123 75 106 87
317 81 279 95 278 268 209 185 230 157 177 174 228 252 143 238 343 313 312 230 247 257 227 287 254 236 252 174 187 248 264 263 250 268 280 265 257 247 255 257 252 246 234 224 227 228 224 221 204 198 196 161 143 145 162 186 197 197 209 171 150 146 142 129 108 103 94 100 93 94 78 71 64 67 70 74 58 72 67 66 62 66 67 102 77 80
231 196 268 60 218 220 219 38 348 5 356 249 202 209 206 161 193 218 246 90 260 230 237 197 250 228 264 116 205 233 247 266 194 240 268 272 264 257 249 246 245 252 248 238 234 235 248 247 227 196 172 154 158 171 183 186 185 194 211 184 153 146 138 136 117 102 104 100 95 94 96 89 89 81 90 100 91 85 81 72 73 71 100 94 78 74
146 83 283 258 246 286 43 81 62 26 182 242 291 278 1 237 305 239 259 201 36 242 29 302 317 240 256 165 205 227 258 278 212 211 262 269 267 261 253 248 250 247 252 246 238 232 238 235 237 222 196 185 187 182 180 176 188 189 192 190 169 155 133 121 116 114 120 117 117 106 99 103 98 105 109 105 103 90 85 83 81 76 99 99 98 83
114 222 257 256 270 99 170 131 151 215 246 291 223 204 204 215 218 259 284 359 225 109 232 220 244 283 267 158 251 259 272 271 241 225 244 265 269 265 261 256 244 250 248 246 242 244 244 238 223 223 220 201 191 185 183 182 178 174 184 192 173 151 141 142 135 136 137 131 119 115 117 111 115 115 117 112 102 101 100 103 102 99 102 99 99 95
267 198 169 293 304 264 205 155 181 110 255 236 250 186 220 279 47 112 106 220 269 198 243 209 256 264 277 334 319 265 294 263 261 221 209 247 259 259 264 260 249 250 262 260 248 236 236 237 220 215 212 204 194 185 181 178 178 174 177 183 178 147 148 140 142 140 139 137 130 131 127 123 126 122 116 112 112 110 112 112 110 100 98 104 100 99
165 222 144 232 249 268 259 251 270 274 195 191 250 234 219 203 164 139 243 200 246 184 202 221 269 261 254 208 259 254 228 264 252 235 225 231 259 266 270 262 264 254 254 259 257 249 241 233 228 218 211 207 198 188 182 179 172 168 167 176 168 159 154 151 140 139 143 144 140 136 132 129 125 121 118 119 116 112 108 106 106 107 101 106 109 103
238 344 233 224 227 242 251 276 96 128 101 215 206 191 206 207 208 224 320 235 226 223 219 219 240 263 275 274 262 266 260 253 274 250 235 251 238 239 250 260 259 261 258 252 247 247 245 239 235 228 214 206 199 190 182 173 166 164 166 167 173 161 154 149 142 142 141 145 142 142 138 131 127 126 127 122 117 118 116 113 112 111 109 111 113 112
305 260 222 236 235 242 248 248 232 177 254 258 247 236 194 189 196 199 199 225 193 230 252 222 247 247 258 275 277 278 280 271 245 265 258 247 260 256 258 269 266 258 252 243 245 243 237 231 223 217 214 202 198 186 176 168 166 166 170 170 168 164 154 152 148 145 147 150 151 146 139 134 131 129 125 123 127 124 121 117 113 111 112 112 107 103
218 258 240 197 247 247 253 266 274 274 246 259 245 236 197 200 189 199 217 227 173 218 250 236 245 244 245 248 266 270 272 280 276 271 264 268 277 270 270 270 266 260 258 241 238 231 233 235 225 215 204 201 187 184 177 168 164 160 157 156 163 162 158 156 150 148 150 154 153 146 142 138 132 131 132 135 133 127 121 115 113 112 109 102 96 88
129 248 235 205 260 259 255 251 257 242 265 274 259 246 234 186 202 204 217 219 222 236 242 252 261 261 239 245 256 261 269 279 283 275 267 266 262 266 271 273 271 265 255 255 252 239 230 234 237 229 210 195 195 187 178 173 172 171 165 164 163 158 155 160 152 148 151 152 146 144 143 137 136 139 140 139 132 126 123 119 115 110 101 94 92 91
175 261 97 248 261 255 242 254 219 226 237 261 257 249 238 219 219 218 228 231 234 251 251 260 257 261 253 245 268 270 274 282 286 272 260 249 263 272 276 276 271 259 250 246 251 252 242 234 231 224 212 210 194 192 182 175 165 158 157 155 158 154 157 161 144 143 146 139 138 141 143 142 139 142 140 133 128 124 121 116 111 103 97 95 94 94
175 269 64 198 280 271 213 238 241 359 243 251 264 261 212 193 225 222 225 226 208 237 230 248 260 261 264 254 258 273 274 266 261 265 275 277 266 253 251 261 265 264 259 248 241 245 255 245 227 215 217 208 196 188 177 163 155 153 156 152 152 144 149 149 140 138 134 132 140 145 148 141 141 138 132 130 124 121 117 114 109 104 103 103 99 96
187 206 236 198 258 266 276 290 301 309 298 271 251 226 217 212 218 218 222 223 213 227 242 241 246 237 250 274 276 265 255 256 264 270 279 271 252 230 239 250 261 267 267 262 257 247 240 240 230 218 212 197 191 184 174 151 146 157 149 149 143 138 151 147 142 136 137 142 147 149 147 147 146 137 132 127 123 122 121 115 109 108 107 103 105 106
151 198 249 148 252 271 299 280 219 281 262 255 342 176 184 205 217 227 235 225 226 198 227 224 245 327 336 257 241 263 270 268 272 287 259 265 281 220 236 250 258 265 269 270 263 258 254 242 222 215 208 196 180 162 142 148 142 135 137 138 143 152 150 147 143 144 144 149 153 153 152 152 145 136 130 130 130 127 122 114 110 111 111 113 110 105
202 186 234 150 244 265 261 103 258 243 249 352 170 17 244 237 235 235 264 268 259 234 245 269 272 280 271 266 260 260 266 294 4 278 277 233 227 252 259 259 261 265 272 277 277 258 249 243 214 193 189 183 159 136 136 136 131 131 133 143 147 151 148 147 144 148 153 154 153 154 154 150 142 135 135 136 132 126 118 117 118 117 116 115 112 112
219 200 199 230 191 351 67 213 248 238 258 45 240 137 354 211 232 288 277 259 253 250 240 251 257 257 256 256 256 264 348 316 307 274 255 255 186 223 241 260 270 271 274 277 280 274 260 234 212 195 181 142 130 142 144 140 140 137 141 145 147 148 149 148 150 151 155 153 155 157 156 152 143 141 141 138 132 125 121 120 121 116 112 108 103 101
231 225 195 253 164 244 240 234 245 299 297 277 270 210 165 256 170 171 267 265 241 228 216 229 240 244 249 254 261 293 338 337 304 286 320 240 217 223 251 268 285 294 295 290 283 281 281 242 193 164 140 144 145 141 140 137 138 135 138 145 147 149 150 154 155 159 159 156 156 157 158 155 147 144 143 139 131 125 124 124 122 119 123 116 114 113
218 219 191 228 229 209 246 264 262 265 257 269 188 233 208 236 260 265 322 281 254 253 218 213 234 248 252 257 278 50 151 277 286 279 81 70 118 220 252 273 286 288 289 283 271 268 252 159 136 131 145 142 135 128 130 136 137 137 142 148 152 153 155 162 161 158 159 156 156 154 156 152 147 143 143 138 133 128 125 124 120 121 125 122 121 112
6 8 317 217 241 188 230 240 246 245 250 343 301 265 280 130 171 167 229 271 201 211 230 204 230 248 253 282 74 150 171 281 273 288 353 173 259 244 285 280 279 282 285 292 283 237 173 152 146 143 135 135 133 135 133 136 139 140 145 152 155 157 157 165 156 159 157 147 145 145 147 148 144 143 140 133 128 128 129 128 126 119 115 112 110 109
178 207 203 227 229 229 239 241 247 221 262 229 240 281 308 70 193 135 255 292 43 201 204 177 218 244 268 264 149 193 228 274 288 309 51 319 304 282 255 292 300 300 298 314 335 15 126 127 126 137 146 143 137 138 141 142 145 144 147 152 154 158 162 159 151 140 123 127 136 140 141 141 140 136 134 129 125 125 119 117 119 122 116 113 113 113
178 196 199 218 218 224 227 250 262 266 254 259 274 253 184 216 17 206 229 214 255 292 173 191 215 210 225 167 173 214 222 240 284 306 311 293 299 246 191 238 278 306 307 335 49 108 125 145 155 144 137 125 132 139 140 144 140 144 144 147 155 165 147 131 127 130 133 132 132 132 131 131 134 128 122 124 124 119 119 124 124 123 119 117 113 112
233 164 220 214 229 227 227 228 236 265 241 161 197 148 185 144 231 231 249 340 72 15 107 222 266 204 174 177 196 226 279 290 280 286 292 290 278 290 296 270 259 354 33 42 98 138 130 122 105 94 91 109 130 137 144 145 140 138 146 153 162 146 127 132 135 131 132 131 126 124 123 123 117 116 118 117 122 124 118 115 120 119 119 116 116 112
181 176 191 195 209 244 231 244 236 255 202 201 191 307 188 222 249 270 296 276 176 267 190 216 187 317 169 270 221 242 271 286 292 299 296 293 301 308 325 290 243 214 177 135 151 165 138 135 130 122 123 129 133 140 145 146 139 143 151 161 148 134 140 136 133 131 128 124 120 116 117 119 120 119 125 124 123 120 116 118 112 107 110 116 114 111
160 221 190 210 178 212 190 210 218 225 240 196 190 211 182 217 240 257 251 286 228 177 290 21 265 215 217 259 293 295 266 267 289 290 294 295 298 295 294 261 189 167 159 144 132 164 172 123 117 116 120 124 132 138 147 152 143 150 157 148 131 137 135 134 131 128 120 115 116 114 108 110 108 109 117 120 119 115 120 121 118 114 116 117 118 118
169 231 225 247 179 210 214 219 216 227 217 211 213 231 243 253 268 335 304 270 291 296 121 351 331 309 286 303 293 283 298 279 266 283 287 291 304 307 309 312 261 207 181 176 165 163 182 157 145 133 129 135 139 146 148 154 141 145 153 138 143 145 142 137 131 124 119 116 116 112 114 110 112 112 110 117 120 117 117 117 121 114 110 115 113 118
46 249 317 276 240 230 249 259 259 245 231 240 237 242 253 264 269 261 262 291 274 98 161 266 282 297 312 307 295 300 281 299 311 305 299 290 282 289 293 291 241 188 173 155 154 167 171 146 135 141 142 139 144 141 147 138 146 148 144 138 145 142 137 130 123 115 112 112 111 112 114 104 94 87 87 96 99 103 117 124 120 116 118 110 109 112
285 288 285 253 310 255 246 210 237 246 248 241 240 249 257 229 247 270 285 274 284 292 280 261 248 262 254 220 230 258 289 303 310 303 308 301 277 271 275 282 264 205 189 190 178 153 157 159 157 157 150 148 152 139 125 126 122 121 128 140 137 130 126 118 112 111 115 116 116 119 120 119 124 120 108 98 96 89 91 92 98 106 108 111 119 118
263 154 250 239 257 260 267 264 257 255 256 263 258 254 257 264 268 245 221 259 278 286 269 286 259 271 190 216 209 227 261 281 283 291 301 303 301 301 290 264 259 231 213 187 158 167 156 172 166 154 152 145 148 133 124 119 118 126 126 125 126 123 119 118 122 124 124 123 125 128 123 109 119 118 115 108 106 106 101 91 99 103 102 120 125 131
275 34 249 206 261 252 268 283 282 277 270 255 243 213 241 263 274 270 256 245 226 276 299 299 239 247 256 270 280 250 246 257 269 263 270 282 291 295 291 277 259 238 189 178 173 173 180 174 152 142 138 130 140 133 123 114 117 125 124 128 131 134 123 120 116 111 112 116 115 116 116 118 120 112 111 103 84 72 73 93 98 97 87 50 29 59
238 246 252 258 259 253 242 254 253 260 264 261 244 247 246 251 261 270 276 272 257 243 228 255 282 238 219 231 254 261 275 291 292 293 274 253 265 280 283 276 266 234 198 168 145 167 161 156 147 145 139 131 151 136 127 120 124 124 126 132 138 135 124 125 123 119 122 122 121 122 118 112 110 106 108 111 111 106 85 63 71 88 106 105 96 87
241 248 245 245 243 255 241 244 263 274 283 286 303 306 292 274 258 259 260 251 251 223 206 208 287 321 311 302 273 260 280 284 285 279 283 283 272 258 270 276 259 220 177 158 152 166 154 144 148 132 130 138 145 141 133 124 127 128 132 137 140 137 132 133 126 120 120 122 123 126 116 113 112 112 106 111 118 119 119 112 82 73 85 96 89 82